SB KEPS @ AMSAT $ORB13052.O Orbital Elements 13052.OSCAR
HR AMSAT ORBITAL ELEMENTS FOR OSCAR SATELLITES FROM WA5QGD FORT WORTH,TX February 21, 2013 BID: ORB13052.O TO ALL RADIO AMATEURS BT
Satellite: AO-07 Catalog number: 07530 Epoch time: 13052.56984245 Element set: 613 Inclination: 101.4238 deg RA of node: 046.3102 deg Eccentricity: 0.0012126 Arg of perigee: 152.7091 deg Mean anomaly: 355.0497 deg Mean motion: 12.53594865 rev/day Decay rate: -6.3e-07 rev/day^2 Epoch rev: 75129 Checksum: 284
Satellite: FO-29 Catalog number: 24278 Epoch time: 13052.76617470 Element set: 54 Inclination: 098.5713 deg RA of node: 126.6970 deg Eccentricity: 0.0351229 Arg of perigee: 103.1684 deg Mean anomaly: 260.8887 deg Mean motion: 13.52996293 rev/day Decay rate: -7.7e-07 rev/day^2 Epoch rev: 81570 Checksum: 336
Satellite: SO-33 Catalog number: 25509 Epoch time: 13051.85976736 Element set: 437 Inclination: 031.4356 deg RA of node: 006.1949 deg Eccentricity: 0.0351943 Arg of perigee: 219.5935 deg Mean anomaly: 165.1497 deg Mean motion: 14.28963105 rev/day Decay rate: 1.79e-06 rev/day^2 Epoch rev: 74824 Checksum: 336
Satellite: RS-22 Catalog number: 27939 Epoch time: 13052.57018818 Element set: 182 Inclination: 097.7993 deg RA of node: 246.4515 deg Eccentricity: 0.0012942 Arg of perigee: 190.2752 deg Mean anomaly: 169.8201 deg Mean motion: 14.64325890 rev/day Decay rate: 3.83e-06 rev/day^2 Epoch rev: 50237 Checksum: 319
Satellite: VO-52 Catalog number: 28650 Epoch time: 13052.11595147 Element set: 349 Inclination: 097.5763 deg RA of node: 076.6531 deg Eccentricity: 0.0025102 Arg of perigee: 304.8368 deg Mean anomaly: 055.0451 deg Mean motion: 14.83581740 rev/day Decay rate: 1.123e-05 rev/day^2 Epoch rev: 42187 Checksum: 294
Satellite: HO-68 Catalog number: 36122 Epoch time: 13052.67121417 Element set: 304 Inclination: 100.3234 deg RA of node: 112.5744 deg Eccentricity: 0.0007194 Arg of perigee: 258.6894 deg Mean anomaly: 101.3411 deg Mean motion: 13.16302103 rev/day Decay rate: -4.4e-07 rev/day^2 Epoch rev: 15321 Checksum: 238
/EX SB KEPS @ AMSAT $ORB13052.D Orbital Elements 13052.MICROS
HR AMSAT ORBITAL ELEMENTS FOR THE MICROSATS FROM WA5QGD FORT WORTH,TX February 21, 2013 BID: ORB13052.D TO ALL RADIO AMATEURS BT
Satellite: UO-11 Catalog number: 14781 Epoch time: 13052.22370965 Element set: 107 Inclination: 097.9176 deg RA of node: 115.1217 deg Eccentricity: 0.0007554 Arg of perigee: 308.8436 deg Mean anomaly: 051.2102 deg Mean motion: 14.80758780 rev/day Decay rate: 4.28e-06 rev/day^2 Epoch rev: 55677 Checksum: 299
Satellite: AO-16 Catalog number: 20439 Epoch time: 13051.89257782 Element set: 680 Inclination: 098.4614 deg RA of node: 354.6853 deg Eccentricity: 0.0011844 Arg of perigee: 139.2016 deg Mean anomaly: 252.9466 deg Mean motion: 14.32139938 rev/day Decay rate: 5.5e-07 rev/day^2 Epoch rev: 20559 Checksum: 322
Satellite: LO-19 Catalog number: 20442 Epoch time: 13052.85658359 Element set: 613 Inclination: 098.4302 deg RA of node: 357.7843 deg Eccentricity: 0.0012952 Arg of perigee: 128.4681 deg Mean anomaly: 265.4225 deg Mean motion: 14.32353499 rev/day Decay rate: 6.5e-07 rev/day^2 Epoch rev: 20592 Checksum: 313
Satellite: AO-27 Catalog number: 22825 Epoch time: 13052.85287308 Element set: 319 Inclination: 098.6079 deg RA of node: 358.1692 deg Eccentricity: 0.0007308 Arg of perigee: 264.8564 deg Mean anomaly: 128.9101 deg Mean motion: 14.29534759 rev/day Decay rate: 6.6e-07 rev/day^2 Epoch rev: 1215 Checksum: 322
Satellite: IO-26 Catalog number: 22826 Epoch time: 13051.89535575 Element set: 75 Inclination: 098.6014 deg RA of node: 357.5350 deg Eccentricity: 0.0007814 Arg of perigee: 260.9745 deg Mean anomaly: 131.2800 deg Mean motion: 14.29815671 rev/day Decay rate: 6.4e-07 rev/day^2 Epoch rev: 1214 Checksum: 294
Satellite: GO-32 Catalog number: 25397 Epoch time: 13052.18698185 Element set: 4 Inclination: 098.3975 deg RA of node: 025.0782 deg Eccentricity: 0.0000374 Arg of perigee: 306.6067 deg Mean anomaly: 053.5096 deg Mean motion: 14.23322612 rev/day Decay rate: 3.3e-07 rev/day^2 Epoch rev: 75944 Checksum: 299
Satellite: NO-44 Catalog number: 26931 Epoch time: 13052.75702185 Element set: 265 Inclination: 067.0508 deg RA of node: 197.0693 deg Eccentricity: 0.0004921 Arg of perigee: 275.0822 deg Mean anomaly: 084.9724 deg Mean motion: 14.29891124 rev/day Decay rate: 3.81e-06 rev/day^2 Epoch rev: 59492 Checksum: 317
Satellite: SO-50 Catalog number: 27607 Epoch time: 13051.65855880 Element set: 997 Inclination: 064.5560 deg RA of node: 258.8544 deg Eccentricity: 0.0061160 Arg of perigee: 195.6707 deg Mean anomaly: 164.2487 deg Mean motion: 14.72766799 rev/day Decay rate: 1.99e-06 rev/day^2 Epoch rev: 54655 Checksum: 362
Satellite: CO-55 Catalog number: 27844 Epoch time: 13052.88414941 Element set: 585 Inclination: 098.7033 deg RA of node: 063.6295 deg Eccentricity: 0.0009284 Arg of perigee: 216.0204 deg Mean anomaly: 216.0814 deg Mean motion: 14.21162158 rev/day Decay rate: 1.49e-06 rev/day^2 Epoch rev: 50035 Checksum: 292
Satellite: CO-57 Catalog number: 27848 Epoch time: 13051.53915736 Element set: 531 Inclination: 098.7117 deg RA of node: 061.7559 deg Eccentricity: 0.0009033 Arg of perigee: 226.1892 deg Mean anomaly: 280.0325 deg Mean motion: 14.20894740 rev/day Decay rate: 1.47e-06 rev/day^2 Epoch rev: 50009 Checksum: 305
Satellite: AO-51 Catalog number: 28375 Epoch time: 13051.93972414 Element set: 491 Inclination: 098.1839 deg RA of node: 012.1543 deg Eccentricity: 0.0084385 Arg of perigee: 008.3157 deg Mean anomaly: 351.9416 deg Mean motion: 14.41069147 rev/day Decay rate: 1.41e-06 rev/day^2 Epoch rev: 45459 Checksum: 309
Satellite: CP3 Catalog number: 31129 Epoch time: 13051.97930672 Element set: 396 Inclination: 097.8893 deg RA of node: 051.2279 deg Eccentricity: 0.0101410 Arg of perigee: 069.1084 deg Mean anomaly: 292.0929 deg Mean motion: 14.53464513 rev/day Decay rate: 4.55e-06 rev/day^2 Epoch rev: 31011 Checksum: 293
Satellite: CO-65 Catalog number: 32785 Epoch time: 13052.73469975 Element set: 558 Inclination: 097.7664 deg RA of node: 113.5007 deg Eccentricity: 0.0013271 Arg of perigee: 329.6849 deg Mean anomaly: 177.5697 deg Mean motion: 14.83595580 rev/day Decay rate: 8.87e-06 rev/day^2 Epoch rev: 26075 Checksum: 369
Satellite: PRISM Catalog number: 33493 Epoch time: 13052.84235647 Element set: 557 Inclination: 098.2006 deg RA of node: 206.1332 deg Eccentricity: 0.0018290 Arg of perigee: 204.6942 deg Mean anomaly: 155.3409 deg Mean motion: 14.85295770 rev/day Decay rate: 2.801e-05 rev/day^2 Epoch rev: 22079 Checksum: 292
Satellite: SOHLA-1 Catalog number: 33496 Epoch time: 13052.79491412 Element set: 975 Inclination: 098.1218 deg RA of node: 169.2159 deg Eccentricity: 0.0005612 Arg of perigee: 337.6465 deg Mean anomaly: 184.9346 deg Mean motion: 14.70191077 rev/day Decay rate: 2.94e-06 rev/day^2 Epoch rev: 21891 Checksum: 323
Satellite: SO-67 Catalog number: 35870 Epoch time: 13052.87451536 Element set: 814 Inclination: 097.2056 deg RA of node: 085.7658 deg Eccentricity: 0.0002904 Arg of perigee: 047.6972 deg Mean anomaly: 077.3328 deg Mean motion: 15.25963854 rev/day Decay rate: 3.432e-05 rev/day^2 Epoch rev: 19066 Checksum: 338
Satellite: TISAT-1 Catalog number: 36799 Epoch time: 13052.81602295 Element set: 828 Inclination: 098.0405 deg RA of node: 136.8434 deg Eccentricity: 0.0015807 Arg of perigee: 084.7907 deg Mean anomaly: 275.5070 deg Mean motion: 14.82869537 rev/day Decay rate: 5.81e-06 rev/day^2 Epoch rev: 14147 Checksum: 328
Satellite: STUDSAT Catalog number: 36801 Epoch time: 13052.28051697 Element set: 590 Inclination: 098.0538 deg RA of node: 138.4823 deg Eccentricity: 0.0012865 Arg of perigee: 067.9895 deg Mean anomaly: 292.2685 deg Mean motion: 14.86959996 rev/day Decay rate: 4.180e-05 rev/day^2 Epoch rev: 14150 Checksum: 341
Satellite: FO-69 Catalog number: 37227 Epoch time: 13051.42898468 Element set: 0068 Inclination: 071.9723 deg RA of node: 124.0466 deg Eccentricity: 0.0018281 Arg of perigee: 222.0544 deg Mean anomaly: 137.9148 deg Mean motion: 14.77376835 rev/day Decay rate: 5.19e-06 rev/day^2 Epoch rev: 01166 Checksum: 323
Satellite: FO-70 Catalog number: 37380 Epoch time: 13051.27387721 Element set: 0071 Inclination: 071.9753 deg RA of node: 125.2665 deg Eccentricity: 0.0018795 Arg of perigee: 219.1865 deg Mean anomaly: 140.7787 deg Mean motion: 14.77117187 rev/day Decay rate: 2.0e-07 rev/day^2 Epoch rev: 01171 Checksum: 305
Satellite: ALMASAT-1 Catalog number: 38078 Epoch time: 13052.67493173 Element set: 25 Inclination: 069.4844 deg RA of node: 107.8728 deg Eccentricity: 0.0720881 Arg of perigee: 294.0939 deg Mean anomaly: 058.6424 deg Mean motion: 14.19193418 rev/day Decay rate: 1.8862e-04 rev/day^2 Epoch rev: 5282 Checksum: 335
Satellite: XATCOBEO Catalog number: 38082 Epoch time: 13052.57123264 Element set: 942 Inclination: 069.4855 deg RA of node: 094.0329 deg Eccentricity: 0.0638832 Arg of perigee: 286.4092 deg Mean anomaly: 066.7803 deg Mean motion: 14.40617322 rev/day Decay rate: 5.0752e-04 rev/day^2 Epoch rev: 5319 Checksum: 306
/EX SB KEPS @ AMSAT $ORB13052.W Orbital Elements 13052.WEATHER
HR AMSAT ORBITAL ELEMENTS FOR WEATHER SATELLITES FROM WA5QGD FORT WORTH,TX February 21, 2013 BID: ORB13052.W TO ALL RADIO AMATEURS BT
Satellite: NOAA-10 Catalog number: 16969 Epoch time: 13052.12304030 Element set: 252 Inclination: 098.5575 deg RA of node: 082.4266 deg Eccentricity: 0.0011803 Arg of perigee: 220.7414 deg Mean anomaly: 187.6845 deg Mean motion: 14.27615702 rev/day Decay rate: 5.5e-07 rev/day^2 Epoch rev: 37538 Checksum: 286
Satellite: NOAA-11 Catalog number: 19531 Epoch time: 13052.20167171 Element set: 252 Inclination: 098.7157 deg RA of node: 137.9482 deg Eccentricity: 0.0010655 Arg of perigee: 228.1527 deg Mean anomaly: 184.6631 deg Mean motion: 14.15002596 rev/day Decay rate: -6.0e-08 rev/day^2 Epoch rev: 25972 Checksum: 287
